Regional Weather Roundup
Issued by NWS

Home | Current Version | Previous Version | Graphics & Text | Print | Product List | Glossary On
Versions: 1 2 3 4 5 6 7 8 9 10 11 12 13 14 15 16 17 18 19 20 21 22 23 24 25 26 27 28
000
ASUS43 KDMX 010807
RWRIA

WEATHER ROUNDUP FOR IOWA
NATIONAL WEATHER SERVICE DES MOINES IA
300 AM CDT SAT NOV 01 2014

NOTE: "FAIR" INDICATES FEW OR NO CLOUDS BELOW 12,000 FEET WITH NO
SIGNIFICANT WEATHER AND/OR OBSTRUCTIONS TO VISIBILITY.

* - THESE STATIONS ARE NOT NWS STATIONS...THUS NOT UNDER NWS
QUALITY CONTROL.  THEY ALSO DO NOT REPORT WEATHER SUCH
AS PRECIPITATION OR FOG.

IAZ001>003-012>014-020>022-031>034-043>046-010900-
   NORTHWEST IOWA

CITY           SKY/WX    TMP DP  RH WIND       PRES   REMARKS
CARROLL *      PTCLDY    19  16  86 CALM      30.46F
CHEROKEE *       N/A     21  18  86 CALM      30.44F
DENISON *      CLEAR     25  19  80 E7        30.42F WCI  17
LE MARS *      CLEAR     27  19  74 SE9       30.42F WCI  17
ORANGE CITY *  CLEAR     27  18  69 SE6       30.41S WCI  20
SHELDON *      PTCLDY    23  18  80 SE9       30.40F WCI  13
SIOUX CITY     PTCLDY    26  19  74 SE7       30.44S WCI  18
SPENCER        CLEAR     15  12  88 CALM      30.44S
STORM LAKE *   CLEAR     21  16  79 SE6       30.44S WCI  14
$$

IAZ055>058-069>071-079>083-090>094-010900-
   SOUTHWEST IOWA

CITY           SKY/WX    TMP DP  RH WIND       PRES   REMARKS
ATLANTIC *     CLEAR     21  19  93 CALM      30.46F
AUDUBON *      CLEAR     21  16  79 CALM      30.45F
CLARINDA *     CLEAR     23  23 100 CALM      30.49S
COUNCIL BLFS * CLEAR     27  19  74 SE5       30.43F WCI  21
CRESTON *      CLEAR     25  19  80 E7        30.46R WCI  17
HARLAN  *      CLEAR     25  21  86 E3        30.48F
LAMONI         PTCLDY    26  20  77 NE5       30.46S WCI  20
RED OAK *      CLEAR     23  19  86 CALM      30.47S
SHENANDOAH *   CLEAR     23  19  86 CALM      30.47F
$$

IAZ047>049-059>061-072>074-084-010900-
   CENTRAL IOWA

CITY           SKY/WX    TMP DP  RH WIND       PRES   REMARKS
AMES           CLEAR     20  17  88 CALM      30.48S
ANKENY *       CLEAR     21  19  93 NE3       30.48S
CHARITON *     CLEAR     27  19  74 CALM      30.46F
DES MOINES     PTCLDY    30  19  63 CALM      30.48S
GRINNELL*      CLEAR     23  19  86 CALM      30.47S
KNOXVILLE *    CLEAR     28  19  69 NE5       30.46F WCI  23
MARSHALLTOWN   CLEAR     21  17  84 NE3       30.47F
PELLA *        CLEAR     25  19  80 NE3       30.48F
PERRY *          N/A     21  19  93 CALM      30.47F
$$

IAZ004>006-015-016-023>025-035-036-010900-
   NORTH CENTRAL IOWA

CITY           SKY/WX    TMP DP  RH WIND       PRES   REMARKS
ALGONA *       CLEAR     25  18  74 SE6       30.46F WCI  18
CLARION *      CLEAR     23  18  80 SE5       30.47S WCI  17
ESTHERVILLE    CLEAR     17  12  80 S6        30.44F WCI   9
FORT DODGE *   PTCLDY    19  14  79 E3        30.47S
MASON CITY     PTCLDY    18  15  88 CALM      30.47F
FOREST CITY *  CLEAR     19  19 100 CALM      30.46S
IOWA FALLS *     N/A     23  18  80 CALM      30.47F
$$

IAZ007>011-017>019-026>030-037>042-050>054-066-010900-
   NORTHEAST IOWA

CITY           SKY/WX    TMP DP  RH WIND       PRES   REMARKS
CEDAR RAPIDS   CLEAR     24  18  77 N3        30.46F
CHARLES CITY * CLEAR     23  18  80 NE6       30.47F WCI  16
CLINTON *      CLEAR     23  16  74 N9        30.48S WCI  13
DECORAH *      CLEAR     23  18  80 CALM      30.46S
DUBUQUE        CLEAR     26  18  71 N5        30.46R WCI  20
MONTICELLO *   CLEAR     23  19  86 NW5       30.47S WCI  17
OELWEIN *      CLEAR     21  18  86 N5        30.48R WCI  15
WATERLOO       MIX PCPN  21  17  84 CALM      30.48S
$$

IAZ064-065-067-068-078-010900-
   EAST CENTRAL IOWA

CITY           SKY/WX    TMP DP  RH WIND       PRES   REMARKS
DAVENPORT      CLEAR     21  15  78 N7        30.46S WCI  12
IOWA CITY      CLEAR     29  20  69 N3        30.49S
MT. PLEASANT * CLEAR     25  19  80 N7        30.47S WCI  17
MUSCATINE *    CLEAR     27  19  74 CALM      30.49R
QUAD CITIES    CLEAR     30  18  60 N5        30.46R WCI  25
$$

IAZ062-063-075>077-085>089-095>099-010900-
   SOUTHEAST IOWA

CITY           SKY/WX    TMP DP  RH WIND       PRES   REMARKS
BURLINGTON     CLEAR     27  20  75 N6        30.46R WCI  20
FAIRFIELD *    CLEAR     25  18  74 N6        30.47S WCI  18
FORT MADISON * CLEAR     27  21  80 N3        30.46S
KEOKUK *       CLEAR     28  21  74 N6        30.45S WCI  22
OSKALOOSA *      N/A     23  18  80 N5        30.47S WCI  17
CENTERVILLE *  CLEAR     23  21  93 N3        30.48R
OTTUMWA        CLEAR     22  16  78 N5        30.47S WCI  16
WASHINGTON *   CLEAR     27  21  80 N8        30.47S WCI  18
$$

ABBREVIATIONS USED IN REMARKS
   TC - TEMPERATURES IN CELSIUS
  WCI - WIND CHILL INDEX
   HX - HEAT INDEX
  VSB - VISIBILITY
$$




USA.gov is the U.S. government's official web portal to all federal, state and local government web resources and services.